Date,TemperatureHighF,TemperatureAvgF,TemperatureLowF,DewpointHighF,DewpointAvgF,DewpointLowF,HumidityHigh,HumidityAvg,HumidityLow,PressureMaxIn,PressureMinIn,WindSpeedMaxMPH,WindSpeedAvgMPH,GustSpeedMaxMPH,PrecipitationSumIn
2014-1-1,43,29,40,42,-1,-100,97,67,90,29.07,28.61,19,-291,19,0.11
2014-1-2,48,34,42,45,5,-100,96,66,77,29.02,28.55,46,-253,46,0.02
2014-1-3,48,30,42,43,-6,-100,94,57,74,29.02,28.43,48,-318,48,0.08
2014-1-4,44,31,37,39,7,-100,94,69,1,29.22,28.94,23,-213,23,0.08
2014-1-5,53,33,40,50,3,-100,96,65,77,29.22,28.69,36,-267,36,0.24
2014-1-6,50,33,44,50,0,-100,93,59,50,28.87,28.48,41,-296,41,0.02
2014-1-7,50,32,44,46,-1,-100,96,63,84,29.41,28.86,38,-299,38,0.13
2014-1-8,47,30,37,46,2,-100,98,70,93,29.70,29.42,13,-273,13,0.02
2014-1-9,47,31,36,43,2,-100,100,66,83,29.68,29.58,16,-271,16,0.03
2014-1-10,46,29,35,45,-1,-100,98,66,87,29.79,29.54,16,-290,16,0.07
2014-1-11,45,31,34,41,6,-100,97,70,85,30.00,29.78,16,-219,16,0.03
2014-1-12,49,32,41,46,3,-100,97,67,87,29.80,29.32,25,-272,25,0.28
2014-1-13,44,29,33,40,2,-100,97,68,83,29.45,29.29,17,-253,17,0.03
2014-1-14,50,20,35,50,-35,-100,99,44,93,29.47,29.17,27,-534,27,0.24
2014-1-15,50,35,42,50,8,-100,99,69,83,29.17,28.88,29,-240,29,0.11
2014-1-16,47,34,41,44,12,-100,97,75,89,28.87,28.74,17,-202,17,0.00
2014-1-17,48,34,40,44,9,-100,97,72,85,29.06,28.87,12,-220,13,0.02
2014-1-18,42,30,35,41,5,-100,100,72,84,29.07,28.97,8,-242,8,0.00
2014-1-19,44,33,40,42,12,-100,96,75,88,29.43,29.07,16,-198,16,0.26
2014-1-20,46,32,34,42,6,-100,97,68,79,29.68,29.43,23,-236,23,0.02
2014-1-21,48,35,43,46,10,-100,96,71,86,29.50,29.24,25,-224,25,0.15
2014-1-22,48,39,43,46,23,-100,97,67,1,29.74,29.27,22,-128,22,0.06
2014-1-23,48,34,40,46,10,-100,98,72,87,29.88,29.65,25,-216,25,0.49
2014-1-24,52,36,45,51,7,-100,100,62,1,29.71,29.52,27,-268,27,0.42
2014-1-25,50,46,42,50,43,36,95,51,1,29.86,29.56,40,6,40,0.02
2014-1-26,46,32,36,44,5,-100,95,64,60,29.69,28.98,40,-219,40,0.09
2014-1-27,48,42,41,44,33,-100,93,70,1,28.98,28.77,43,-38,43,0.11
2014-1-28,47,33,39,44,6,-100,93,67,78,29.20,28.79,22,-234,22,0.01
2014-1-29,46,35,38,42,15,-100,96,71,1,29.54,29.21,15,-164,15,0.00
2014-1-30,43,32,35,41,9,-100,97,74,92,29.55,29.39,15,-216,15,0.06
2014-1-31,47,30,34,46,1,-100,98,65,59,29.39,28.68,31,-268,33,0.18
2014-2-1,48,34,37,44,7,-100,95,66,65,29.08,28.38,48,-224,48,0.13
2014-2-2,49,37,42,44,15,-100,93,70,76,29.32,29.04,35,-176,35,0.00
2014-2-3,49,35,39,45,11,-100,95,67,1,29.10,28.91,42,-198,42,0.00
2014-2-4,45,34,36,43,16,-100,96,75,81,29.09,28.22,30,-161,30,0.07
2014-2-5,47,32,44,45,2,-100,97,67,89,28.90,28.13,24,-284,24,0.18
2014-2-6,46,33,38,42,8,-100,93,67,76,29.07,28.90,20,-218,20,0.01
2014-2-7,45,34,36,44,15,-100,97,75,84,29.16,28.31,30,-162,30,0.14
2014-2-8,46,31,41,45,-1,-100,97,65,85,28.44,27.92,33,-290,33,0.09
2014-2-9,50,38,32,50,23,-100,94,68,1,28.94,28.44,32,-97,33,0.11
2014-2-10,46,33,30,39,10,-100,97,67,54,29.32,28.94,36,-185,36,0.00
2014-2-11,42,31,34,40,11,-100,95,71,66,29.18,28.99,34,-162,34,0.04
2014-2-12,45,32,37,43,8,-100,95,68,68,29.19,28.13,51,-194,51,0.16
2014-2-13,46,34,35,40,11,-100,93,68,67,29.19,28.84,33,-178,33,0.04
2014-2-14,45,29,37,44,3,-100,98,70,89,29.18,28.21,19,-253,20,0.19
2014-2-15,49,36,38,43,14,-100,91,68,65,29.55,28.48,18,-173,18,0.00
2014-2-16,47,36,32,44,20,-100,95,78,81,29.57,29.17,25,-130,25,0.06
2014-2-17,51,38,39,48,19,-100,99,76,1,29.51,29.16,18,-176,18,0.01
2014-2-18,49,38,38,48,21,-100,100,82,93,29.65,29.51,17,-144,17,0.02
2014-2-19,51,38,46,50,17,-100,99,78,94,29.66,29.11,18,-198,18,0.25
2014-2-20,50,32,38,50,2,-100,99,61,1,29.31,28.98,34,-265,34,0.24
2014-2-21,48,37,40,42,17,-100,95,71,72,29.42,29.19,40,-159,40,0.11
2014-2-22,51,36,43,49,10,-100,97,70,86,29.45,29.14,27,-231,27,0.02
2014-2-23,51,35,44,49,6,-100,95,65,81,29.30,29.00,32,-252,32,0.05
2014-2-24,46,36,41,42,17,-100,94,75,84,29.29,28.85,33,-162,33,0.11
2014-2-25,49,35,41,42,11,-100,94,64,1,29.39,28.73,37,-199,37,0.11
2014-2-26,49,39,40,44,23,-100,96,74,66,29.68,29.31,39,-122,39,0.06
2014-2-27,47,35,38,41,12,-100,95,69,71,29.57,29.32,27,-181,27,0.33
2014-2-28,48,36,36,42,18,-100,95,74,74,29.64,29.36,24,-145,24,0.07
2014-3-1,49,38,38,47,25,-100,98,82,88,29.54,29.27,23,-113,26,0.06
2014-3-2,48,32,37,45,7,-100,98,69,77,29.31,28.68,29,-224,29,0.06
2014-3-3,49,37,34,42,22,-100,96,78,66,29.41,28.67,23,-110,23,0.09
2014-3-4,48,38,40,44,23,-100,97,79,81,29.77,29.40,13,-114,13,0.00
2014-3-5,51,42,43,49,29,-100,98,82,83,29.86,29.77,23,-107,23,0.21
2014-3-6,52,38,47,51,16,-100,99,77,98,29.89,29.70,21,-217,24,0.50
2014-3-7,48,37,42,47,12,-100,100,60,48,30.14,29.70,24,-178,24,0.03
2014-3-8,55,44,44,49,27,-100,97,76,77,29.90,29.67,35,-121,35,0.02
2014-3-9,46,36,39,44,16,-100,100,75,1,30.19,29.78,12,-182,12,0.05
2014-3-10,52,37,36,46,20,-100,99,76,64,30.44,30.19,7,-134,7,0.00
2014-3-11,56,42,33,45,29,-100,100,76,52,30.47,30.39,8,-66,8,0.00
2014-3-12,51,40,37,45,28,-100,100,82,75,30.43,30.35,10,-95,10,0.00
2014-3-13,51,45,39,48,41,-100,98,93,87,30.41,30.34,6,-21,6,0.01
2014-3-14,51,42,44,49,29,-100,98,83,91,30.38,30.28,18,-109,18,0.00
2014-3-15,53,43,46,49,28,-100,97,80,85,30.41,30.33,23,-107,23,0.00
2014-3-16,52,45,46,49,35,-100,98,84,83,30.35,30.20,20,-73,20,0.00
2014-3-17,50,42,44,48,28,-100,96,81,84,30.19,29.85,20,-115,20,0.00
2014-3-18,53,46,47,48,34,-100,97,82,75,30.05,29.70,32,-69,32,0.03
2014-3-19,52,45,48,48,31,-100,98,80,84,30.03,29.49,38,-99,38,0.00
2014-3-20,51,40,41,50,23,-100,97,76,72,29.49,29.28,38,-121,38,0.14
2014-3-21,47,40,38,42,34,-100,97,84,74,29.43,29.22,42,-18,42,0.21
2014-3-22,47,39,38,41,28,-100,96,79,59,29.62,29.15,28,-59,28,0.20
2014-3-23,50,41,38,41,29,-100,92,76,57,29.86,29.62,21,-58,21,0.07
2014-3-24,51,41,41,48,29,-100,96,80,80,29.70,29.10,36,-86,36,0.03
2014-3-25,53,42,41,43,26,-100,91,71,57,30.18,29.40,23,-96,23,0.00
2014-3-26,53,44,41,43,34,-100,90,76,62,30.22,29.93,17,-41,17,0.00
2014-3-27,48,39,38,42,27,-100,95,79,67,29.94,29.80,16,-78,16,0.14
2014-3-28,48,38,36,42,25,-100,95,80,76,29.97,29.88,18,-98,18,0.05
2014-3-29,51,43,40,47,35,-100,100,86,72,29.88,29.53,15,-46,15,0.33
2014-3-30,56,45,42,50,33,-100,96,79,64,29.74,29.52,18,-84,19,0.09
2014-3-31,59,49,48,50,38,-100,96,80,67,29.69,29.63,18,-58,18,0.05
2014-4-1,60,50,44,49,41,-100,97,79,57,29.71,29.53,17,-28,17,0.03
2014-4-2,57,47,47,53,37,-100,95,84,82,29.53,29.29,20,-76,20,0.15
2014-4-3,59,50,48,51,42,-100,93,82,72,29.50,29.30,17,-41,17,0.00
2014-4-4,60,48,50,50,36,-100,95,78,60,29.57,29.49,21,-77,21,0.05
2014-4-5,57,48,50,55,37,-100,100,86,91,29.54,29.39,20,-92,20,0.17
2014-4-6,55,48,48,54,36,-100,97,81,77,29.60,29.21,31,-76,31,0.02
2014-4-7,52,45,42,48,36,-100,93,80,62,29.71,29.51,26,-38,26,0.04
2014-4-8,53,46,41,48,38,-100,94,81,67,30.14,29.71,23,-27,23,0.02
2014-4-9,54,49,49,51,41,-100,95,86,74,30.14,30.10,21,-39,21,0.00
2014-4-10,55,47,42,50,38,-100,98,80,59,30.16,30.05,23,-39,23,0.00
2014-4-11,52,45,39,45,35,-100,96,79,70,30.17,29.99,29,-40,29,0.00
2014-4-12,55,47,47,50,35,-100,98,73,53,30.11,29.87,28,-47,29,0.00
2014-4-13,53,45,46,47,32,-100,93,75,71,30.20,30.11,27,-73,27,0.00
2014-4-14,60,47,43,44,30,-100,89,65,54,30.29,30.20,10,-80,10,0.00
2014-4-15,62,50,40,47,37,-100,92,68,46,30.24,30.13,24,-26,24,0.00
2014-4-16,58,49,47,51,39,-100,97,78,69,30.14,30.02,21,-37,21,0.00
2014-4-17,53,48,47,50,39,-100,95,84,75,30.14,30.04,17,-40,17,0.00
2014-4-18,58,49,46,49,40,-100,96,80,68,30.14,30.02,11,-43,11,0.00
2014-4-19,63,52,46,51,40,-100,95,72,44,30.03,29.86,16,-29,16,0.00
2014-4-20,62,50,41,49,36,-100,90,66,47,29.93,29.71,17,-42,17,0.00
2014-4-21,64,54,49,49,41,-100,91,69,46,29.71,29.58,20,-26,20,0.01
2014-4-22,58,51,48,51,43,-100,91,81,75,29.63,29.56,12,-26,12,0.01
2014-4-23,57,48,46,50,40,-100,95,83,68,29.83,29.50,23,-48,23,0.57
2014-4-24,61,52,45,48,45,41,95,78,52,29.93,29.83,13,4,13,0.00
2014-4-25,58,51,45,50,45,41,90,80,64,29.88,29.24,15,5,22,0.06
2014-4-26,58,48,44,51,40,-100,94,84,75,29.47,29.15,23,-41,23,0.19
2014-4-27,63,54,48,50,47,43,92,79,52,29.82,29.47,12,3,12,0.05
2014-4-28,65,55,43,53,48,41,96,79,47,29.83,29.77,10,2,10,0.01
2014-4-29,65,55,52,52,43,-100,92,72,58,29.78,29.72,16,-41,16,0.00
2014-4-30,59,53,50,54,50,46,95,90,82,29.73,29.60,24,6,24,0.10
2014-5-1,58,53,50,53,51,49,96,92,82,30.01,29.61,16,4,16,0.09
2014-5-2,59,51,50,54,42,-100,94,85,83,30.20,30.01,12,-48,12,0.00
2014-5-3,60,55,50,57,50,-90,100,91,1,30.20,30.07,15,4,15,0.03
2014-5-4,57,52,52,53,44,-100,100,87,86,30.07,29.72,21,-46,21,0.01
2014-5-5,57,46,50,53,29,-100,96,76,83,29.72,29.35,30,-123,30,0.13
2014-5-6,57,52,49,50,48,44,93,86,73,29.44,29.33,29,12,29,0.01
2014-5-7,55,51,47,51,48,44,96,89,82,29.66,29.43,32,13,32,0.09
2014-5-8,55,50,50,53,43,-100,98,89,81,29.64,29.48,28,-39,28,0.13
2014-5-9,55,51,48,51,47,45,96,86,70,29.74,29.42,32,10,32,0.13
2014-5-10,57,52,48,53,50,47,97,92,80,29.44,29.18,35,13,35,0.06
2014-5-11,53,50,46,49,46,43,95,89,74,29.69,29.44,27,10,27,0.00
2014-5-12,55,49,44,50,46,42,94,88,72,29.93,29.68,18,4,18,0.26
2014-5-13,60,52,46,50,46,44,94,81,59,30.30,29.93,20,6,20,0.00
2014-5-14,56,51,51,54,46,-100,100,92,84,30.48,30.29,16,-21,16,0.02
2014-5-15,61,55,52,54,51,49,97,87,73,30.50,30.46,13,4,13,0.00
2014-5-16,59,54,50,53,50,48,94,87,69,30.46,30.25,21,7,21,0.00
2014-5-17,60,54,52,53,51,48,98,87,65,30.25,29.74,27,11,27,0.02
2014-5-18,56,48,44,53,37,-100,98,77,58,29.74,29.59,22,-56,22,0.26
2014-5-19,60,51,45,54,49,42,98,92,74,29.60,29.46,12,3,12,0.53
2014-5-20,67,57,52,59,55,51,98,92,73,29.58,29.47,18,3,18,0.43
2014-5-21,59,53,48,51,48,44,96,84,59,29.70,29.58,15,4,15,0.00
2014-5-22,58,51,46,51,48,44,96,87,77,29.68,29.58,24,7,24,0.13
2014-5-23,56,50,46,48,45,42,96,83,69,29.82,29.67,22,7,22,0.25
2014-5-24,56,50,47,51,47,44,92,87,79,29.89,29.79,20,7,21,0.04
2014-5-25,56,52,46,50,48,44,93,86,76,29.94,29.87,17,4,17,0.00
2014-5-26,59,54,50,52,49,41,95,83,56,29.95,29.91,16,4,16,0.00
2014-5-27,66,57,46,52,49,45,95,77,54,29.96,29.91,11,2,11,0.00
2014-5-28,70,58,46,56,52,44,96,80,54,29.99,29.92,15,2,15,0.01
2014-5-29,65,58,51,55,51,47,93,79,63,30.12,29.97,13,2,13,0.00
2014-5-30,66,57,47,54,50,46,97,80,58,30.20,30.12,9,2,9,0.00
2014-5-31,61,56,50,56,53,48,95,89,82,30.21,30.14,17,6,19,0.00
2014-6-1,63,57,55,59,55,53,97,92,82,30.14,29.89,21,7,21,0.02
2014-6-2,57,54,52,54,51,47,97,88,72,29.96,29.85,17,6,17,0.01
2014-6-3,58,53,46,50,47,43,94,82,62,29.85,29.70,20,7,20,0.08
2014-6-4,60,51,41,48,43,39,93,76,55,29.75,29.68,19,4,19,0.01
2014-6-5,65,54,41,48,42,36,94,66,40,29.75,29.70,13,2,13,0.00
2014-6-6,61,55,50,56,51,45,91,85,73,29.73,29.54,22,4,22,0.09
2014-6-7,67,56,54,57,45,-100,93,77,64,29.67,29.56,24,-57,24,0.06
2014-6-8,63,57,52,57,53,50,94,89,76,29.81,29.64,18,4,18,0.30
2014-6-9,63,58,54,57,54,51,94,88,75,29.81,29.71,18,5,18,0.14
2014-6-10,64,58,53,56,53,51,95,85,66,29.92,29.69,14,4,15,0.02
2014-6-11,63,58,53,56,54,52,96,86,69,30.24,29.92,17,5,17,0.00
2014-6-12,68,61,55,58,55,52,93,81,66,30.23,30.20,21,6,21,0.00
2014-6-13,63,59,56,60,56,53,97,91,82,30.26,30.19,17,5,17,0.12
2014-6-14,68,60,56,58,56,52,96,85,69,30.35,30.26,10,3,11,0.01
2014-6-15,66,59,51,56,53,49,95,81,66,30.38,30.35,13,3,14,0.00
2014-6-16,74,64,51,58,54,49,94,72,51,30.39,30.30,16,3,16,0.00
2014-6-17,77,67,55,64,58,53,93,74,55,30.37,30.30,12,2,12,0.00
2014-6-18,77,66,57,64,58,54,96,79,52,30.33,30.26,19,4,19,0.00
2014-6-19,68,61,53,55,53,50,92,77,59,30.30,30.22,17,5,17,0.00
2014-6-20,66,60,56,54,52,48,82,73,61,30.25,30.14,14,3,14,0.00
2014-6-21,67,60,52,58,54,50,95,80,63,30.17,30.12,16,4,16,0.00
2014-6-22,66,60,51,57,54,50,97,82,70,30.19,30.14,12,2,12,0.00
2014-6-23,71,63,56,58,55,49,93,76,47,30.22,30.17,15,3,15,0.00
2014-6-24,72,63,51,59,55,49,96,77,56,30.19,30.00,11,2,11,0.00
2014-6-25,69,62,60,60,59,56,96,88,67,30.00,29.82,7,1,7,0.38
2014-6-26,62,56,56,59,51,-100,97,89,79,29.82,29.72,18,-24,18,0.14
2014-6-27,68,60,55,58,55,50,97,84,55,29.80,29.69,14,2,17,0.02
2014-6-28,68,59,50,53,50,45,94,74,47,29.88,29.79,17,3,17,0.00
2014-6-29,70,60,52,54,49,46,85,68,47,29.93,29.87,11,2,12,0.00
2014-6-30,72,63,54,54,50,45,88,63,41,29.98,29.87,16,2,16,0.00
2014-7-1,77,64,50,58,50,46,86,62,38,30.05,29.98,10,2,10,0.00
2014-7-2,65,61,57,59,57,54,97,87,75,30.03,29.93,28,9,29,0.00
2014-7-3,62,59,54,60,57,52,97,93,79,29.97,29.63,24,7,24,0.04
2014-7-4,63,59,54,60,56,48,99,90,67,29.63,29.38,21,7,21,0.35
2014-7-5,62,56,49,52,49,46,92,78,59,29.51,29.45,24,6,24,0.02
2014-7-6,63,57,49,54,50,46,93,79,57,29.73,29.51,21,5,21,0.02
2014-7-7,64,58,51,53,50,47,90,77,55,29.90,29.73,16,4,16,0.00
2014-7-8,67,59,53,54,52,49,94,77,58,30.22,29.90,22,4,22,0.01
2014-7-9,63,58,49,61,54,46,97,87,69,30.23,30.15,17,4,17,0.00
2014-7-10,68,62,58,60,58,56,97,89,76,30.15,30.06,18,5,18,0.00
2014-7-11,62,61,59,61,59,58,98,96,92,30.06,29.92,15,4,15,0.00
2014-7-12,62,60,57,61,59,54,99,96,86,29.92,29.70,19,7,19,0.05
2014-7-13,64,59,54,55,52,49,93,80,59,29.82,29.76,21,6,21,0.00
2014-7-14,65,60,57,62,57,53,98,90,76,29.88,29.60,25,8,25,0.11
2014-7-15,68,60,51,60,54,49,96,81,63,29.97,29.83,21,5,21,0.09
2014-7-16,65,62,58,61,58,56,98,89,78,30.01,29.79,29,10,29,0.02
2014-7-17,73,64,58,64,60,56,97,87,67,30.01,29.86,10,3,10,0.01
2014-7-18,74,64,60,65,60,56,96,87,71,29.86,29.63,13,3,13,0.12
2014-7-19,70,64,60,62,60,57,95,87,73,29.72,29.64,13,3,13,0.00
2014-7-20,67,62,59,59,57,55,92,83,68,29.95,29.72,20,5,20,0.00
2014-7-21,68,63,60,65,61,57,97,92,87,30.05,29.94,13,4,13,0.08
2014-7-22,74,68,64,70,66,63,98,93,81,30.11,30.04,11,2,11,0.08
2014-7-23,74,68,64,67,64,63,97,89,74,30.10,29.99,11,2,11,0.06
2014-7-24,74,67,62,67,63,61,98,90,76,30.02,29.99,12,2,12,0.02
2014-7-25,80,68,60,68,63,60,98,86,60,30.02,29.93,17,3,17,0.03
2014-7-26,70,65,59,62,60,56,97,84,62,30.05,29.95,19,5,19,0.02
2014-7-27,69,62,56,58,55,52,95,79,57,30.06,30.01,18,4,19,0.00
2014-7-28,69,62,58,59,56,53,88,79,64,30.08,30.04,14,4,14,0.00
2014-7-29,68,63,58,61,57,54,97,82,61,30.04,30.00,17,4,17,0.00
2014-7-30,66,62,58,62,58,55,97,88,73,30.02,29.85,23,8,23,0.01
2014-7-31,67,62,58,61,57,52,97,85,62,29.86,29.67,22,6,22,0.02
2014-8-1,63,59,55,58,56,53,96,91,76,29.67,29.53,12,3,12,0.36
2014-8-2,61,57,51,57,53,48,95,88,79,29.57,29.51,16,4,16,0.10
2014-8-3,67,58,52,56,51,49,95,77,58,29.76,29.52,19,5,19,0.02
2014-8-4,71,61,50,60,54,48,97,81,57,29.82,29.76,12,2,13,0.17
2014-8-5,69,63,60,62,60,58,95,90,75,29.81,29.70,11,3,11,0.10
2014-8-6,66,62,56,62,55,48,96,81,54,29.85,29.67,21,6,21,0.01
2014-8-7,66,60,53,57,53,49,93,80,60,29.86,29.78,19,5,19,0.06
2014-8-8,64,60,56,58,54,50,94,82,64,29.78,29.54,26,7,26,0.11
2014-8-9,65,60,54,57,55,52,94,82,70,29.55,29.44,20,6,20,0.02
2014-8-10,64,58,52,56,53,50,98,84,62,29.52,29.37,19,4,19,0.16
2014-8-11,64,58,55,56,53,50,92,83,66,29.58,29.49,29,9,29,0.11
2014-8-12,65,58,53,57,53,49,94,84,69,29.59,29.47,20,5,20,0.28
2014-8-13,66,59,55,57,54,51,93,83,65,29.73,29.59,17,4,17,0.00
2014-8-14,66,56,54,57,51,48,97,78,57,29.97,29.71,19,4,19,0.10
2014-8-15,66,58,50,53,51,48,91,77,57,30.13,29.97,14,4,14,0.00
2014-8-16,61,58,55,56,54,51,96,85,72,30.13,29.88,24,8,24,0.00
2014-8-17,64,54,51,54,47,45,95,73,55,29.88,29.82,20,4,20,0.01
2014-8-18,64,56,51,52,49,45,94,78,57,29.97,29.86,20,4,20,0.01